Find Starlink 11646

NORAD ID: 63186 Int'l Des: 2025-048 Owner: SPXS Country: US Constellation: starlink operational
別名: STARLINK-11646 [DTC] celestrak
LEOCIRCULAR

現在のビュー

3D地球を読み込み中...

About Starlink 11646

Starlink 11646 (NORAD 63186) is a starlink constellation satellite (v2 mini d2c) launched Mar 13, 2025 by SPXS of US. It operates in LEO, CIRCULAR orbit with a mass of 960.00 kg.

次回通過

Passes for default location (London). Set your location on the main map for personalized predictions.

高度履歴

Loading altitude history...

軌道要素

1 63186U 25048D 26235.71287357 .00232767 00000-0 17693-2 0 9996
2 63186 43.0006 32.7728 0001342 141.4215 218.6749 15.70811524 84795
Epoch: Aug 23, 2026 • Age: 15 hours

現在のステータス

高度 367.5 km
遠地点 / 近地点 N/A
速度 7.69 km/s
衛星直下点 -37.63°S, 120.41°W
打ち上げ日 Mar 13, 2025
運用期間 1.4 years
タイプ internet

技術仕様

分類 Payload
質量 960.00 kg
乾燥質量 910.00 kg
総質量 960.00 kg
長さ 0.30 m
直径 4.10 m
スパン 29.00 m
形状 Box + pan
製造者 SPXS
バスタイプ Starlink V2MD
フェーズステータス In Orbit
所有者/国 SPXS/US

Most Searched